Weather History for Jackson, MS

Change the Weather History Date:

Tuesday, September 23, 2014

  Actual Average Record
Temperature  
Mean Temperature 71 °F 73 °F  
Max Temperature 84 °F 85 °F 102 °F (1925)
Min Temperature 57 °F 62 °F 41 °F (1982)
Degree Days  
Heating Degree Days 0 0  
Month to date heating degree days 0 0  
Since 1 July heating degree days 0 0  
Cooling Degree Days 6 9  
Month to date cooling degree days 337 275  
Year to date cooling degree days 2067 2074  
Growing Degree Days 20 (Base 50)    
Moisture  
Dew Point 54 °F    
Average Humidity 61    
Maximum Humidity 84    
Minimum Humidity 37    
Precipitation  
Precipitation 0.00 in 0.11 in 3.69 in (1914)
Month to date precipitation 1.72 2.28  
Year to date precipitation 45.40 39.56  
Sea Level Pressure  
Sea Level Pressure 30.12 in    
Wind  
Wind Speed 6 mph (NE)    
Max Wind Speed 13 mph    
Max Gust Speed 22 mph    
Visibility 10 miles    
Events      
T = Trace of Precipitation, MM = Missing Value Source: NWS Daily Summary

Daily Weather History Graph

Daily Weather History Graph

Search for Another Location

Airport:

Trip Planner

Search our weather history database for the weather conditions in past years. The results will help you decide how hot, cold, wet, or windy it might be!

Date:

Astronomy

Sep. 23, 2014 Rise Set
Actual Time 6:49 AM CDT 6:55 PM CDT
Civil Twilight 6:24 AM CDT 7:20 PM CDT
Nautical Twilight 5:56 AM CDT 7:48 PM CDT
Astronomical Twilight 5:27 AM CDT 8:17 PM CDT
Moon 6:14 AM CDT (9/23) 6:35 PM CDT (9/23)
Length of Visible Light 12h 55m
Length of Day
12h 06m
Waning Crescent, 0% of the Moon is Illuminated
Sep 23
Waning Crescent
Sep 24
New
Oct 1
First Quarter
Oct 8
Full
Oct 15
Last Quarter

Hourly Weather History & Observations

Time (CDT) Temp. Heat Index Dew Point Humidity Pressure Visibility Wind Dir Wind Speed Gust Speed Precip Events Conditions
12:54 AM 66.9 °F - 53.1 °F 61% 30.12 in 10.0 mi NNE 10.4 mph - N/A   Clear
1:54 AM 64.9 °F - 52.0 °F 63% 30.12 in 10.0 mi NNE 9.2 mph - N/A   Clear
2:54 AM 64.0 °F - 51.1 °F 63% 30.12 in 10.0 mi NE 8.1 mph - N/A   Clear
3:54 AM 61.0 °F - 51.1 °F 70% 30.12 in 10.0 mi NE 6.9 mph - N/A   Clear
4:54 AM 59.0 °F - 51.1 °F 75% 30.13 in 10.0 mi NE 5.8 mph - N/A   Clear
5:54 AM 57.0 °F - 51.1 °F 81% 30.14 in 10.0 mi NE 4.6 mph - N/A   Clear
6:54 AM 57.0 °F - 51.1 °F 81% 30.15 in 10.0 mi NE 4.6 mph - N/A   Clear
7:54 AM 60.1 °F - 51.1 °F 72% 30.16 in 10.0 mi NE 4.6 mph - N/A   Clear
8:54 AM 64.9 °F - 51.1 °F 61% 30.16 in 10.0 mi ENE 5.8 mph - N/A   Clear
9:54 AM 70.0 °F - 52.0 °F 53% 30.16 in 10.0 mi NNE 4.6 mph - N/A   Clear
10:54 AM 73.9 °F - 52.0 °F 46% 30.17 in 10.0 mi Variable 3.5 mph - N/A   Clear
11:54 AM 75.9 °F - 51.1 °F 42% 30.16 in 10.0 mi ESE 6.9 mph - N/A   Clear
12:54 PM 79.0 °F - 55.0 °F 44% 30.15 in 10.0 mi ESE 6.9 mph - N/A   Partly Cloudy
1:54 PM 81.0 °F 80.5 °F 54.0 °F 39% 30.13 in 10.0 mi NNE 9.2 mph - N/A   Partly Cloudy
2:54 PM 82.0 °F 81.4 °F 55.0 °F 39% 30.10 in 10.0 mi North 11.5 mph - N/A   Partly Cloudy
3:54 PM 82.0 °F 81.2 °F 53.1 °F 37% 30.09 in 10.0 mi North 6.9 mph - N/A   Partly Cloudy
4:54 PM 82.9 °F 81.9 °F 54.0 °F 37% 30.08 in 10.0 mi North 9.2 mph - N/A   Clear
5:54 PM 81.0 °F 80.4 °F 53.1 °F 38% 30.07 in 10.0 mi ENE 5.8 mph - N/A   Clear
6:54 PM 75.9 °F - 57.0 °F 52% 30.08 in 10.0 mi Calm Calm - N/A   Clear
7:54 PM 71.1 °F - 57.9 °F 63% 30.08 in 10.0 mi Calm Calm - N/A   Clear
8:54 PM 64.9 °F - 57.9 °F 78% 30.10 in 10.0 mi Calm Calm - N/A   Clear
9:54 PM 64.0 °F - 59.0 °F 84% 30.12 in 10.0 mi Calm Calm - N/A   Clear
10:54 PM 66.9 °F - 57.0 °F 70% 30.12 in 10.0 mi ENE 5.8 mph - N/A   Clear
11:54 PM 66.0 °F - 57.0 °F 73% 30.11 in 10.0 mi ENE 6.9 mph - N/A   Clear